Home   Weather   Atlantic City   Past weeks
Flag for USA

Past Weather in Atlantic City, New Jersey, USA — Yesterday and Last 2 Weeks

Now
67 °F

Passing clouds.


Feels Like: 67 °F
Forecast: 65 / 50 °F
Wind: 9 mph from East

Location: Atlantic City International Airport

Current Time: Apr 8, 2020 at 5:26:11 pm

Latest Report: Apr 8, 2020 at 3:54 pm


Visibility: 10 mi

Pressure: 29.55 "Hg

Humidity: 57%

Dew Point: 51 °F

Location of Atlantic CityLocation

Past Weather in Atlantic City — Graph

°F

Atlantic City Temperature Yesterday

Maximum temperature yesterday: 61 °F (at 1:54 pm)
Minimum temperature yesterday: 37 °F (at 4:54 am)
Average temperature yesterday: 51 °F

High & Low Weather Summary for the Past Weeks

 TemperatureHumidityPressure
High74 °F (Apr 8, 1:54 pm)97% (Mar 28, 10:54 pm)30.15 "Hg (Mar 28, 10:54 pm)
Low34 °F (Mar 26, 6:54 am)26% (Apr 7, 12:54 pm)29.51 "Hg (Apr 8, 6:54 am)
Average52 °F70%29.90 "Hg
* Reported Mar 24 6:54 pm — Apr 8 3:54 pm, Atlantic City. Weather by CustomWeather, © 2020

Note: Actual official high and low records may vary slightly from our data, if they occured in-between our weather recording intervals... More about our weather records

Atlantic City Weather History for the Previous 24 Hours

Scroll right to see more
 ConditionsComfort  
Time TempWeatherWind HumidityBarometerVisibility
3:54 pm
Wed, Apr 8
67 °FPassing clouds.9 mph57%29.55 "Hg10 mi
2:54 pm74 °FPartly sunny.15 mph41%29.54 "Hg10 mi
1:54 pm74 °FPassing clouds.12 mph43%29.54 "Hg10 mi
12:54 pm72 °FPassing clouds.16 mph48%29.53 "Hg10 mi
9:54 am64 °FSunny.17 mph73%29.54 "Hg10 mi
8:54 am60 °FSunny.12 mph83%29.54 "Hg10 mi
7:54 am57 °FSunny.7 mph90%29.52 "Hg10 mi
6:54 am56 °FScattered clouds.9 mph90%29.51 "Hg9 mi
5:54 am57 °FPartly cloudy.3 mph90%29.52 "Hg10 mi
12:54 am51 °FClear.5 mph83%29.64 "Hg10 mi
11:54 pm
Tue, Apr 7
52 °FClear.No wind83%29.68 "Hg10 mi
10:54 pm52 °FPassing clouds.3 mph80%29.71 "Hg10 mi
9:54 pm53 °FPassing clouds.5 mph77%29.74 "Hg10 mi
8:54 pm52 °FClear.7 mph80%29.76 "Hg10 mi
7:54 pm54 °FClear.3 mph74%29.77 "Hg10 mi
6:54 pm56 °FPartly sunny.8 mph70%29.77 "Hg10 mi
Weather by CustomWeather, © 2020

See weather overview

Advertising